Location: Joplin
(37.0842°N, 94.5131°W)
Time: 11:05:08
(UTC-05:00)

Envisat - Visible Passes

Search period start: 23 October 2018 00:00
Search period end: 02 November 2018 00:00
Orbit: 764 x 766 km, 98.2° (Epoch: 23 October)

Date Brightness Start Highest point End Pass type
(mag) Time Alt. Az. Time Alt. Az. Time Alt. Az.
23 Oct 3.3 19:44:14 10° SE 19:48:57 41° ENE 19:53:41 10° N visible
23 Oct 5.3 21:24:22 10° SW 21:28:05 20° W 21:31:49 10° NW visible
24 Oct 4.3 19:09:05 10° ESE 19:12:32 19° ENE 19:15:59 10° NNE visible
24 Oct 3.9 20:46:17 10° S 20:51:09 47° W 20:56:03 10° NNW visible
25 Oct 2.8 20:09:21 10° SSE 20:14:24 74° ENE 20:19:29 10° N visible
25 Oct 6.0 21:52:45 10° WSW 21:53:54 11° W 21:55:03 10° WNW visible
26 Oct 3.6 19:33:22 10° SE 19:37:51 32° ENE 19:42:19 10° N visible
26 Oct 4.9 21:12:37 10° SSW 21:16:49 26° W 21:21:03 10° NW visible
27 Oct 4.5 18:58:43 10° E 19:01:29 15° ENE 19:04:14 10° NNE visible
27 Oct 3.4 20:34:57 10° S 20:39:56 61° WSW 20:44:59 10° NNW visible
28 Oct 3.0 19:58:17 10° SSE 20:03:15 58° ENE 20:08:14 10° N visible
28 Oct 5.7 21:39:56 10° WSW 21:42:36 14° W 21:45:17 10° WNW visible
29 Oct 3.9 19:22:37 10° ESE 19:26:44 26° ENE 19:30:52 10° NNE visible
29 Oct 4.5 21:01:02 10° SSW 21:05:34 33° W 21:10:09 10° NNW visible
30 Oct 4.8 18:48:47 10° E 18:50:26 12° ENE 18:52:06 10° NE visible
30 Oct 3.0 20:23:41 10° S 20:28:45 79° WSW 20:33:51 10° NNW visible
31 Oct 3.2 19:47:18 10° SE 19:52:06 45° ENE 19:56:56 10° N visible
31 Oct 5.4 21:27:50 10° SW 21:31:18 18° W 21:34:48 10° NW visible
01 Nov 4.2 19:12:00 10° ESE 19:15:40 20° ENE 19:19:20 10° NNE visible
01 Nov 4.1 20:49:33 10° S 20:54:20 43° W 20:59:11 10° NNW visible
